User: anonymous   Login
Location: Unspecified
(0.0000°N, 0.0000°E)
Time: 15:32:49
(UTC+02:00)
Language:

Cosmos 1733 Rocket - Orbit

View from above orbital plane
View from above orbital plane
View from above satellite
View from above satellite

Ground track
Ground track

The orbit data is extracted from the following two-line orbital elements,

1 16612U 86018B   16273.19207036  .00000167  00000-0  17164-4 0  9993
2 16612  82.5195 181.2953 0016331 297.1159 215.1478 14.84106302552745
Epoch (UTC): 29 September 2016 04:36:34
Eccentricity: 0.0016331
inclination: 82.5195°
perigee height: 605 km
apogee height: 628 km
right ascension of ascending node: 181.2953°
argument of perigee: 297.1159°
revolutions per day: 14.84106302
mean anomaly at epoch: 215.1478°
orbit number at epoch: 55274

The dashed part of the orbit path shows where the satellite is in the earth's shadow,  

DLR